EHI
0 0 0 0 0 0 0 0 0 0 0 0 0 0 0 0 0 0 0 0 0 0 0 0 0 1 1 1 2 3 3 3 3 3 3 3 2 2 1 0 0 0 0 0
0 0 0 0 0 0 0 0 0 0 0 0 0 0 0 0 0 0 0 0 0 0 0 0 0 0 0 1 2 3 3 3 3 3 3 2 1 1 0 0 0 0 0 0
0 0 0 0 0 0 0 0 0 0 0 0 0 0 0 0 0 0 0 0 0 0 0 0 0 0 0 1 2 3 3 3 3 3 3 1 0 0 0 0 0 0 0 0
0 0 0 0 0 0 0 0 0 0 0 0 0 0 0 0 0 0 0 0 0 0 0 0 0 0 0 1 2 3 3 3 3 3 2 1 0 0 0 0 0 0 0 0
0 0 0 0 0 0 0 0 0 0 0 0 0 0 0 0 0 0 0 0 0 0 0 0 0 0 0 0 1 2 3 3 3 2 1 0 0 0 0 0 0 0 0 0
0 0 0 0 0 0 0 0 0 0 0 0 0 0 0 0 0 0 0 0 0 0 0 0 0 0 0 0 0 1 1 2 1 1 0 0 0 0 0 0 0 0 0 0
0 0 0 0 0 0 0 0 0 0 0 0 0 0 0 0 0 0 0 0 0 0 0 0 0 0 0 0 0 0 0 0 0 0 0 0 0 0 0 0 0 0 0 0
0 0 0 0 0 0 0 0 0 0 0 0 0 0 0 0 0 0 0 0 0 0 0 0 0 0 0 0 0 0 0 0 0 0 0 0 0 0 0 0 0 0 0 0
0 0 0 0 0 0 0 0 0 0 0 0 0 0 0 0 0 0 0 0 0 0 0 0 0 0 0 0 0 0 0 0 0 0 0 0 0 0 0 0 0 0 0 0
0 0 0 0 0 0 0 0 0 0 0 0 0 0 0 0 0 0 0 0 0 0 0 0 0 0 0 0 0 0 0 0 0 0 0 0 0 0 0 0 0 0 0 0
0 0 0 0 0 0 0 0 0 0 0 0 0 0 0 0 0 0 0 0 0 0 0 0 0 0 0 0 0 0 0 0 0 0 0 0 0 0 0 0 0 0 0 0
0 0 0 0 0 0 0 0 0 0 0 0 0 0 0 0 0 0 0 0 0 0 0 0 0 0 0 0 0 0 0 0 0 0 0 0 0 0 0 0 0 0 0 0
0 0 0 0 0 0 0 0 0 0 0 0 0 0 0 0 0 0 0 0 0 0 0 0 0 0 0 0 0 0 0 0 0 0 0 0 0 0 0 0 0 0 0 0
0 0 0 0 0 0 0 0 0 0 0 0 0 0 0 0 0 0 0 0 0 0 0 0 0 0 0 0 0 0 0 0 0 0 0 0 0 0 0 0 0 0 0 0
0 0 0 0 0 0 0 0 0 0 0 0 0 0 0 0 0 0 0 0 0 0 0 0 0 0 0 0 0 0 0 0 0 0 0 0 0 0 0 0 0 0 0 0
0 0 0 0 0 0 0 0 0 0 0 0 0 0 0 0 0 0 0 0 0 0 0 0 0 0 0 0 0 0 0 0 0 0 0 0 0 0 0 0 0 0 0 0
0 0 0 0 0 0 0 0 0 0 0 0 0 0 0 0 0 0 0 0 0 0 0 0 0 0 0 0 0 0 0 0 0 0 0 0 0 0 0 0 0 0 0 0
0 0 0 0 0 0 0 0 0 0 0 0 0 0 0 0 0 0 0 0 0 0 0 0 0 0 0 0 0 0 0 0 0 0 0 0 0 0 0 0 0 0 0 0
0 0 0 0 0 0 0 0 0 0 0 0 0 0 0 0 0 0 0 0 0 0 0 0 0 0 0 0 0 0 0 0 0 0 0 0 0 0 0 0 0 0 0 0
0 0 0 0 0 0 0 0 0 0 0 0 0 0 0 0 0 0 0 0 0 0 0 0 0 0 0 0 0 0 0 0 0 0 0 0 0 0 0 0 0 0 0 0
0 0 0 0 0 0 0 0 0 0 0 0 0 0 0 0 0 0 0 0 0 0 0 0 0 0 0 0 0 0 0 0 0 0 0 0 0 0 0 0 0 0 0 0
0 0 0 0 0 0 0 0 0 0 0 0 0 0 0 0 0 0 0 0 0 0 0 0 0 0 0 0 0 0 0 0 0 0 0 0 0 0 0 0 0 0 0 0
0 0 0 0 0 0 0 0 0 0 0 0 0 0 0 0 0 0 0 0 0 0 0 0 0 0 0 0 0 0 0 0 0 0 0 0 0 0 0 0 0 0 0 0
0 0 0 0 0 0 0 0 0 0 0 0 0 0 0 0 0 0 0 0 0 0 0 0 0 0 0 0 0 0 0 0 0 0 0 0 0 0 0 0 0 0 0 0
0 0 0 0 0 0 0 0 0 0 0 0 0 0 0 0 0 0 0 0 0 0 0 0 0 0 0 0 0 0 0 0 0 0 0 0 0 0 0 0 0 0 0 0
0 0 0 0 0 0 0 0 0 0 0 0 0 0 0 0 0 0 0 0 0 0 0 0 0 0 0 0 0 0 0 0 0 0 0 0 0 0 0 0 0 0 0 0
Wind_Speed
1 3 4 7 6 4 4 3 4 4 2 3 6 7 7 4 3 3 3 3 3 3 2 0 1 1 1 1 1 1 1 0 1 0 0 1 1 1 1 1 1 1 2 2
2 4 5 4 3 2 2 3 2 2 1 1 4 8 6 5 5 6 6 5 4 2 1 0 1 1 1 1 1 1 1 0 0 0 1 1 1 1 1 1 1 1 1 1
6 3 3 4 3 4 3 5 4 3 2 2 2 6 5 4 5 5 5 5 4 4 3 2 0 0 1 1 0 0 1 0 0 0 0 1 1 1 0 1 1 1 1 1
3 3 2 3 4 5 5 3 4 3 1 3 1 5 7 5 5 5 5 4 5 4 4 2 1 0 0 1 0 1 1 1 1 0 0 1 1 2 2 2 2 2 2 2
2 2 3 4 5 4 4 1 1 2 2 2 2 3 8 2 6 8 7 6 6 5 5 4 3 2 1 0 0 1 1 1 1 1 0 1 1 2 1 1 2 2 2 2
1 1 1 3 1 3 3 3 4 3 2 4 6 5 9 5 8 6 6 6 6 5 3 3 2 1 1 0 1 1 2 2 1 1 0 1 2 2 1 2 2 2 2 2
2 2 1 1 2 1 3 4 2 2 2 7 3 5 10 6 5 6 7 6 5 4 3 3 2 1 1 0 1 1 1 2 2 1 1 1 2 2 3 3 2 2 2 2
2 4 3 2 4 4 4 6 6 5 6 5 2 8 8 4 3 3 3 3 3 3 3 3 2 2 1 1 0 1 1 1 2 1 2 2 1 1 2 2 2 3 2 3
4 4 1 1 1 5 5 4 4 4 1 2 6 6 7 1 1 1 1 2 2 2 2 2 1 1 0 0 1 1 1 1 1 2 2 2 2 1 2 2 2 2 2 2
4 2 2 1 1 1 3 5 4 4 4 5 5 5 5 4 4 3 2 3 2 2 1 1 0 0 1 1 1 1 1 1 1 1 2 2 2 2 2 1 2 2 3 3
2 3 2 1 3 5 4 3 4 3 4 4 4 7 4 6 5 5 4 3 3 3 2 1 1 1 1 1 1 1 1 1 2 2 2 2 2 2 2 2 2 3 2 2
2 4 2 4 3 1 3 5 6 5 4 4 3 9 3 2 2 2 2 1 1 1 1 1 1 0 1 1 2 2 2 2 2 2 2 2 2 2 2 2 2 2 2 2
4 4 1 3 2 1 2 3 4 3 3 4 5 8 2 1 1 0 1 1 0 0 0 0 0 1 1 2 2 2 2 2 3 2 2 3 2 2 2 2 2 2 2 2
4 3 6 7 6 4 4 4 4 5 4 5 9 9 6 4 3 2 1 1 1 1 1 0 0 1 2 2 2 3 3 3 3 3 3 3 3 3 2 2 2 2 2 2
3 3 3 4 4 3 5 8 7 9 9 9 9 9 9 6 5 4 3 2 1 1 1 1 1 1 2 2 2 3 3 3 3 3 3 3 3 3 3 2 2 2 2 3
2 3 1 3 3 4 7 9 9 9 7 8 7 10 7 4 2 2 2 2 2 2 3 2 2 2 2 2 3 3 3 3 3 3 3 3 3 3 3 3 2 2 3 3
2 4 2 3 3 3 8 8 9 6 6 8 10 9 3 2 4 5 5 4 4 4 3 3 3 3 3 3 3 3 3 3 3 3 4 4 4 3 3 3 3 3 3 3
5 4 2 1 1 6 7 2 5 6 6 7 5 4 4 5 5 4 4 4 4 4 3 3 3 3 3 2 3 3 3 3 3 4 4 4 4 4 4 3 3 3 3 3
4 5 3 2 3 8 6 3 3 4 5 5 7 6 4 2 2 3 3 4 4 3 3 3 3 3 2 3 3 3 3 3 3 4 4 4 4 4 4 4 4 3 3 3
2 3 3 3 3 7 6 2 1 2 5 3 4 5 4 1 2 5 2 1 2 2 2 2 2 2 2 3 2 2 3 3 4 4 5 5 4 4 4 4 4 3 3 3
3 3 4 5 5 8 5 2 2 3 6 2 2 3 3 4 6 4 2 2 2 2 2 1 1 2 3 3 2 3 3 4 5 5 5 4 4 4 4 3 3 3 3 3
7 6 6 5 5 9 3 3 5 5 2 1 1 2 2 3 3 2 2 2 1 1 1 1 1 2 3 2 2 3 4 5 4 4 4 4 4 3 3 3 3 3 3 3
6 7 6 7 7 4 3 5 3 2 2 2 2 2 2 2 3 2 2 2 2 2 1 1 2 3 3 3 2 4 5 4 4 4 4 4 4 3 3 3 3 3 3 3
3 2 3 3 6 4 4 3 2 2 3 3 3 3 3 3 3 3 2 2 2 2 2 1 1 2 4 3 3 4 4 4 3 4 4 4 3 3 3 3 3 3 3 3
4 3 3 5 6 4 3 4 3 3 3 2 2 2 3 3 3 3 2 2 2 2 2 2 2 3 4 4 4 4 4 3 3 3 3 3 3 3 3 3 3 3 4 4
4 6 6 6 5 4 5 3 2 3 3 3 2 2 2 3 3 2 2 2 2 2 2 2 3 3 4 4 4 4 3 3 3 3 3 3 3 3 3 3 4 5 6 7
Wind_Direction
113 109 191 202 196 194 183 190 221 235 237 194 222 242 247 236 201 197 202 201 207 223 244 219 70 61 65 64 82 119 108 31 85 78 147 204 226 220 213 217 197 191 184 177
77 233 227 198 184 180 197 214 238 287 311 227 246 259 248 224 214 202 202 209 212 231 287 342 43 47 70 95 89 94 124 193 206 248 241 220 218 213 212 232 243 227 198 191
186 221 202 183 179 189 220 207 218 228 337 341 300 283 242 235 224 221 212 204 200 194 200 214 250 20 74 82 308 323 301 263 282 316 53 32 51 33 12 247 237 245 234 217
213 250 203 181 200 187 227 220 205 203 173 269 198 270 264 231 228 225 222 214 209 207 197 194 192 142 178 256 323 356 343 333 339 53 150 185 213 244 238 227 227 249 240 234
220 198 185 205 215 183 205 197 177 198 178 268 242 235 275 222 227 231 224 218 217 213 199 198 198 196 197 194 41 359 358 357 350 348 234 215 232 241 262 272 234 234 240 236
230 253 199 194 183 164 132 64 40 38 79 252 222 204 267 223 216 219 219 218 216 212 204 200 193 160 148 63 42 21 15 341 334 331 281 225 231 233 235 259 250 242 245 246
311 285 259 136 110 73 110 110 53 352 301 248 217 213 249 244 223 207 208 214 211 203 192 185 173 161 157 57 358 352 359 332 330 336 313 275 251 233 225 234 244 249 248 250
178 261 221 183 182 179 185 160 167 197 223 265 238 231 253 257 239 216 200 198 191 197 198 189 183 170 194 220 271 303 314 306 321 327 316 303 281 251 242 239 238 245 246 247
177 243 292 195 179 157 163 193 172 143 183 254 253 268 292 261 272 248 200 176 194 202 192 176 156 125 131 290 281 270 274 285 298 300 303 300 301 284 273 264 246 250 255 256
153 206 277 298 79 190 163 149 123 153 183 242 267 254 240 224 231 237 228 220 208 192 181 178 169 329 312 306 308 315 309 284 291 300 295 305 297 285 271 266 258 254 257 259
135 153 302 332 202 195 163 167 162 163 179 181 246 262 236 208 205 205 224 219 200 200 195 200 227 276 305 330 343 347 343 339 328 319 311 307 300 302 302 286 274 261 258 252
146 131 218 252 266 254 200 191 164 175 222 195 204 267 289 212 208 197 217 232 221 201 199 204 206 285 342 332 332 332 332 336 326 323 320 311 307 311 311 301 294 281 270 268
143 129 91 333 325 333 225 202 177 153 147 181 199 260 306 18 3 187 189 219 208 148 145 46 4 350 329 328 328 322 322 324 328 330 328 318 310 309 299 294 300 296 281 275
129 154 182 204 220 196 228 229 198 174 195 217 227 249 274 275 275 282 261 231 211 204 202 219 287 312 321 328 333 330 326 327 327 328 320 311 303 293 286 286 291 290 286 277
114 175 218 252 267 234 237 238 220 213 210 212 237 240 253 247 242 238 225 215 211 265 266 249 261 292 312 327 330 327 322 323 323 323 313 303 302 301 301 296 289 286 288 287
115 162 185 279 270 256 264 253 233 231 225 231 250 263 260 260 247 241 225 222 237 251 257 261 274 290 295 299 306 313 314 315 318 313 307 307 308 309 307 301 294 291 289 288
154 146 152 259 299 328 268 237 213 213 210 199 225 242 261 262 242 232 226 227 233 243 250 259 266 264 269 271 282 291 300 307 309 305 305 305 303 303 299 298 296 285 282 285
150 142 157 208 50 242 248 240 202 216 238 218 226 244 237 236 247 241 218 212 233 244 249 260 264 272 277 280 287 290 298 298 297 299 301 301 299 295 295 293 289 284 283 283
165 155 160 166 222 272 282 253 186 197 261 229 221 244 257 270 297 273 220 200 216 230 242 247 250 260 277 281 281 289 296 294 292 291 291 291 290 288 290 289 287 289 290 289
117 137 159 172 199 241 250 243 196 130 273 243 206 233 243 183 244 259 231 236 263 267 257 263 273 274 272 279 281 284 289 291 288 287 286 285 283 282 282 280 284 290 288 283
147 172 196 203 227 259 256 249 127 182 249 250 212 228 212 211 225 250 267 275 267 272 281 281 282 271 270 278 280 276 280 279 285 294 295 294 291 285 281 284 284 287 290 291
175 178 195 182 213 251 225 146 188 223 261 251 242 235 226 237 259 266 251 248 257 289 298 293 288 288 288 280 270 276 278 285 296 300 300 300 297 292 296 296 298 292 287 287
197 194 189 196 217 242 198 206 224 197 224 248 239 243 221 234 255 267 258 257 259 258 268 276 272 292 298 289 270 271 285 299 302 303 303 300 301 301 299 291 292 295 288 281
248 200 181 248 264 261 253 247 253 228 234 246 238 230 207 224 248 257 254 262 270 274 271 278 285 294 298 298 292 280 291 300 299 297 300 304 302 302 302 297 290 287 284 280
222 176 198 248 265 282 268 234 234 236 237 244 247 224 213 209 229 227 238 253 260 275 279 273 267 278 290 299 301 302 300 299 297 295 297 299 298 294 294 293 284 281 271 269
201 186 194 231 230 218 255 252 217 225 242 237 230 247 241 210 214 223 241 250 255 264 272 277 277 282 292 299 301 302 301 298 296 300 300 294 293 289 288 292 299 293 287 293